Regional Weather Roundup
Issued by NWS State College, PA

Home | Current Version | Previous Version | Graphics & Text | Print | Product List | Glossary Off
Versions: 1 2 3 4 5 6 7 8 9 10 11 12 13 14 15 16 17 18 19 20 21 22 23 24 25 26 27 28 29 30 31 32 33 34 35 36 37 38 39 40 41 42 43 44 45 46 47 48 49 50

519
ASUS41 KCTP 011010
RWRCTP

REGIONAL WEATHER ROUNDUP
NATIONAL WEATHER SERVICE STATE COLLEGE PA
600 AM EDT SAT OCT 01 2016

Note: "fair" indicates few or no clouds below 12,000 feet with no
significant weather and/or obstructions to visibility.

* = STATION THAT DOES NOT REPORT PRECIPITATION /E.G. RAIN...SNOW...ETC/
    THUNDER OR FOG.

PAZ002>004-007>009-013>016-020>023-029>032-011100-
WESTERN PENNSYLVANIA

CITY           SKY/WX    TMP DP  RH WIND       PRES   REMARKS
ERIE           CLOUDY    59  56  89 E5        30.11S
MEADVILLE      LGT RAIN  55  53  93 VRB5      30.11S
FRANKLIN*        N/A     54  52  94 E7        30.13F
NEW CASTLE     CLOUDY    57  56  96 E6        30.10S
BEAVER COUNTY  NOT AVBL
BUTLER*        CLOUDY    55  54  94 E9        30.13S
PITTSBURGH INT MOCLDY    56  56 100 E5        30.09S
PITTSBURGH     PTCLDY    57  54  89 E6        30.08F
INDIANA*       CLOUDY    57  55  94 SE7       30.16R
LATROBE        MOCLDY    57  57 100 CALM      30.11F
WASHINGTON CO* PTCLDY    55  52  88 CALM      30.10R
$$

PAZ004>006-010>012-017>019-024>028-033>037-041-042-045-046-049>053-011100-
CENTRAL PENNSYLVANIA

CITY           SKY/WX    TMP DP  RH WIND       PRES   REMARKS
BRADFORD       RAIN      53  53 100 SE6       30.16F FOG
DUBOIS         CLOUDY    54  51  90 E6        30.13S
CLEARFIELD     CLOUDY    54  54 100 NE7       30.16F
JOHNSTOWN      CLOUDY    54  53  97 SE7       30.14R
ALTOONA        LGT RAIN  54  54 100 NE5       30.17R FOG
STATE COLLEGE  CLOUDY    54  54 100 NE6       30.17F
WILLIAMSPORT   CLOUDY    57  55  93 E5        30.17F
SELINSGROVE    CLOUDY    57  56  96 N3        30.18F
FT INDIANTOWN  CLOUDY    56  53  91 E7        30.17S
CAPITAL CITY   CLOUDY    57  54  89 E9        30.16S FOG
HARRISBURG     DRIZZLE   56  56 100 NE6       30.16R FOG
YORK           CLOUDY    56  56 100 NE6       30.15S FOG
$$

PAZ038>040-043-044-047-048-054-055-060>062-067>071-011100-
EASTERN PENNSYLVANIA

CITY           SKY/WX    TMP DP  RH WIND       PRES   REMARKS
SCRANTON       CLOUDY    55  50  83 NE7       30.21S
MOUNT POCONO   CLOUDY    49  48  97 E12       30.22S FOG
ALLENTOWN      CLOUDY    54  51  90 NE10      30.20F FOG
QUAKERTOWN*    CLOUDY    55  54  94 NE7       30.20S
READING        CLOUDY    55  53  93 NE6       30.18S
LANCASTER      CLOUDY    57  56  96 E10       30.17R
COATESVILLE    CLOUDY    55  54  94 NE7G17    30.18S FOG
POTTSTOWN      CLOUDY    55  54  96 NE9       30.20S
BLUE BELL      CLOUDY    54  54 100 NE7       30.18S
DOYLESTOWN     CLOUDY    56  55  97 NE10G17   30.19S
WILLOW GROVE   NOT AVBL
NORTH PHILA    CLOUDY    58  56  93 NE9       30.20S
PHILADELPHIA   CLOUDY    58  56  93 NE9       30.18S
$$




USA.gov is the U.S. government's official web portal to all federal, state and local government web resources and services.